| time (UTC) | temp F | wind direction | speed knots | gust knots | rain 1hr in | rain 24hr in | rain mn in | humidity % | barometer mb |
| 20260506190413 | 59 | 155 | 2.6 | 5.2 | 0.00 | 0.00 | 0.00 | 82 | 1010.7 |
| 20260506184913 | 59 | 186 | 1.7 | 2.6 | 0.00 | 0.00 | 0.00 | 83 | 1010.7 |
| 20260506183413 | 60 | 310 | 0.0 | 1.7 | 0.00 | 0.00 | 0.00 | 82 | 1010.7 |
| 20260506181913 | 60 | 311 | 0.0 | 1.7 | 0.00 | 0.00 | 0.00 | 82 | 1010.5 |
| 20260506180413 | 61 | 76 | 0.0 | 0.9 | 0.00 | 0.00 | 0.00 | 81 | 1010.6 |
| 20260506174912 | 61 | 300 | 1.7 | 1.7 | 0.00 | 0.00 | 0.00 | 80 | 1010.6 |
| 20260506173412 | 61 | 300 | 0.0 | 2.6 | 0.00 | 0.00 | 0.00 | 80 | 1010.5 |
| 20260506171912 | 61 | 298 | 1.7 | 3.5 | 0.00 | 0.00 | 0.00 | 78 | 1010.5 |
| 20260506170412 | 62 | 284 | 1.7 | 2.6 | 0.00 | 0.00 | 0.00 | 78 | 1010.5 |
| 20260506164912 | 62 | 291 | 3.5 | 5.2 | 0.00 | 0.00 | 0.00 | 78 | 1010.5 |
| 20260506163412 | 62 | 302 | 2.6 | 5.2 | 0.00 | 0.00 | 0.00 | 77 | 1010.6 |
| 20260506161912 | 63 | 296 | 2.6 | 7.0 | 0.00 | 0.00 | 0.00 | 77 | 1010.7 |
| 20260506160411 | 61 | 276 | 2.6 | 6.1 | 0.00 | 0.00 | 0.00 | 79 | 1010.8 |
| 20260506154911 | 63 | 286 | 1.7 | 6.1 | 0.00 | 0.00 | 0.00 | 75 | 1010.8 |
| 20260506151911 | 61 | 309 | 1.7 | 3.5 | 0.00 | 0.00 | 0.00 | 80 | 1011.0 |
| 20260506143410 | 62 | 291 | 3.5 | 5.2 | 0.00 | 0.00 | 0.00 | 73 | 1011.0 |
| 20260506141910 | 63 | 313 | 2.6 | 8.7 | 0.00 | 0.00 | 0.00 | 71 | 1011.1 |
| 20260506140410 | 63 | 202 | 2.6 | 7.8 | 0.00 | 0.00 | 0.00 | 70 | 1011.2 |
| 20260506134910 | 63 | 206 | 0.0 | 4.3 | 0.00 | 0.00 | 0.00 | 70 | 1011.2 |
| 20260506133410 | 64 | 225 | 2.6 | 10.4 | 0.00 | 0.00 | 0.00 | 68 | 1011.3 |
| 20260506131910 | 64 | 217 | 0.9 | 8.7 | 0.00 | 0.00 | 0.00 | 70 | 1011.3 |
| 20260506124910 | 67 | 309 | 3.5 | 7.0 | 0.00 | 0.00 | 0.00 | 68 | 1011.5 |
| 20260506123410 | 66 | 224 | 3.5 | 7.8 | 0.00 | 0.00 | 0.00 | 69 | 1011.6 |
| 20260506114910 | 66 | 277 | 3.5 | 7.8 | 0.00 | 0.00 | 0.00 | 66 | 1011.8 |
| 20260506113410 | 66 | 219 | 5.2 | 11.3 | 0.00 | 0.00 | 0.00 | 65 | 1012.1 |
| 20260506111910 | 65 | 305 | 3.5 | 9.6 | 0.00 | 0.00 | 0.00 | 65 | 1012.0 |
| 20260506110410 | 66 | 158 | 4.3 | 8.7 | 0.00 | 0.00 | 0.00 | 66 | 1012.2 |
| 20260506104910 | 67 | 111 | 1.7 | 7.8 | 0.00 | 0.00 | 0.00 | 66 | 1012.3 |
| 20260506100410 | 64 | 286 | 3.5 | 7.8 | 0.00 | 0.00 | 0.00 | 72 | 1012.7 |
| 20260506091911 | 62 | 273 | 0.0 | 3.5 | 0.00 | 0.00 | 0.00 | 80 | 1012.7 |
| 20260506090411 | 62 | 315 | 2.6 | 6.1 | 0.00 | 0.00 | 0.00 | 80 | 1012.7 |
| 20260506084911 | 62 | 300 | 2.6 | 4.3 | 0.00 | 0.00 | 0.00 | 79 | 1012.5 |
| 20260506083411 | 62 | 18 | 1.7 | 3.5 | 0.00 | 0.00 | 0.00 | 79 | 1012.4 |
| 20260506081911 | 61 | 18 | 0.0 | 2.6 | 0.00 | 0.00 | 0.00 | 81 | 1012.2 |
| 20260506080411 | 60 | 313 | 1.7 | 6.1 | 0.00 | 0.00 | 0.00 | 79 | 1012.3 |
| 20260506073410 | 60 | 292 | 2.6 | 3.5 | 0.00 | 0.00 | 0.00 | 81 | 1012.5 |
| 20260506071910 | 60 | 241 | 0.9 | 2.6 | 0.00 | 0.00 | 0.00 | 80 | 1012.5 |
| 20260506070410 | 60 | 213 | 0.9 | 4.3 | 0.00 | 0.00 | 0.00 | 80 | 1012.6 |
| 20260506061910 | 62 | 230 | 4.3 | 10.4 | 0.00 | 0.00 | 0.00 | 74 | 1012.3 |
| 20260506060409 | 62 | 269 | 6.1 | 11.3 | 0.00 | 0.00 | 0.00 | 73 | 1012.3 |
| 20260506050415 | 60 | 225 | 4.3 | 7.0 | 0.00 | 0.00 | 0.00 | 76 | 1012.2 |
| 20260506044915 | 59 | 217 | 5.2 | 8.7 | 0.00 | 0.00 | 0.00 | 76 | 1012.0 |
| 20260506041915 | 59 | 219 | 3.5 | 8.7 | 0.00 | 0.00 | 0.00 | 77 | 1012.0 |
| 20260506040415 | 59 | 255 | 2.6 | 7.0 | 0.00 | 0.00 | 0.00 | 78 | 1012.0 |
| 20260506034915 | 59 | 263 | 6.1 | 13.0 | 0.00 | 0.00 | 0.00 | 78 | 1012.0 |
| 20260506031914 | 59 | 236 | 4.3 | 12.2 | 0.00 | 0.00 | 0.00 | 78 | 1012.0 |
| 20260506030414 | 59 | 254 | 5.2 | 8.7 | 0.00 | 0.00 | 0.00 | 78 | 1012.2 |
| 20260506024914 | 59 | 227 | 6.1 | 8.7 | 0.00 | 0.00 | 0.00 | 79 | 1012.2 |
| 20260506023414 | 59 | 270 | 3.5 | 7.8 | 0.00 | 0.00 | 0.00 | 78 | 1012.4 |
| 20260506021914 | 58 | 254 | 4.3 | 8.7 | 0.00 | 0.00 | 0.00 | 79 | 1012.4 |
| 20260506020414 | 58 | 246 | 5.2 | 7.8 | 0.00 | 0.00 | 0.00 | 80 | 1012.4 |
| 20260506014913 | 58 | 246 | 3.5 | 5.2 | 0.00 | 0.00 | 0.00 | 79 | 1012.3 |
| 20260506011913 | 58 | 225 | 4.3 | 7.8 | 0.00 | 0.00 | 0.00 | 78 | 1012.2 |
| 20260506010413 | 58 | 275 | 4.3 | 14.8 | 0.00 | 0.00 | 0.00 | 79 | 1012.1 |
| 20260506003413 | 58 | 227 | 7.8 | 10.4 | 0.00 | 0.00 | 0.00 | 78 | 1012.2 |
| 20260506001913 | 58 | 228 | 7.0 | 13.0 | 0.00 | 0.00 | 0.00 | 78 | 1012.3 |
| 20260505234912 | 58 | 269 | 2.6 | 7.0 | 0.00 | 0.00 | 0.00 | 80 | 1012.6 |
| 20260505233412 | 58 | 287 | 1.7 | 5.2 | 0.00 | 0.00 | 0.00 | 80 | 1012.6 |
| 20260505231912 | 58 | 289 | 3.5 | 6.1 | 0.00 | 0.00 | 0.00 | 79 | 1012.7 |
| 20260505230412 | 58 | 254 | 2.6 | 6.1 | 0.00 | 0.00 | 0.00 | 79 | 1012.9 |
| 20260505224912 | 58 | 259 | 5.2 | 11.3 | 0.00 | 0.00 | 0.00 | 78 | 1012.7 |
| 20260505223412 | 59 | 245 | 7.8 | 14.8 | 0.00 | 0.00 | 0.00 | 77 | 1012.5 |
| 20260505221911 | 58 | 268 | 2.6 | 5.2 | 0.00 | 0.00 | 0.00 | 78 | 1012.5 |
| 20260505220411 | 58 | 263 | 1.7 | 7.0 | 0.00 | 0.00 | 0.00 | 78 | 1012.5 |
| 20260505214911 | 59 | 304 | 0.9 | 10.4 | 0.00 | 0.00 | 0.00 | 77 | 1012.6 |
| 20260505213411 | 58 | 286 | 5.2 | 8.7 | 0.00 | 0.00 | 0.00 | 79 | 1012.8 |
| 20260505211911 | 58 | 63 | 0.9 | 5.2 | 0.00 | 0.00 | 0.00 | 81 | 1012.9 |
| 20260505210411 | 58 | 46 | 2.6 | 4.3 | 0.00 | 0.00 | 0.00 | 80 | 1013.0 |
| 20260505204911 | 58 | 13 | 1.7 | 2.6 | 0.00 | 0.00 | 0.00 | 80 | 1013.1 |
| 20260505203411 | 58 | 256 | 5.2 | 12.2 | 0.00 | 0.00 | 0.00 | 79 | 1013.0 |
| 20260505201911 | 58 | 225 | 6.1 | 11.3 | 0.00 | 0.00 | 0.00 | 79 | 1013.0 |
| 20260505200411 | 58 | 220 | 4.3 | 10.4 | 0.00 | 0.00 | 0.00 | 79 | 1012.9 |
| 20260505193414 | 58 | 292 | 7.8 | 13.0 | 0.00 | 0.00 | 0.00 | 78 | 1012.9 |
| 20260505191911 | 58 | 254 | 1.7 | 6.1 | 0.00 | 0.00 | 0.00 | 77 | 1012.9 |